Year,Month,Day,Hour,Minute,Value (Times are PST for temperature in C)
2018,04,25,00,00,14.70
2018,04,25,00,01,14.60
2018,04,25,00,02,14.60
2018,04,25,00,03,14.50
2018,04,25,00,04,14.40
2018,04,25,00,05,14.40
2018,04,25,00,06,14.30
2018,04,25,00,07,14.30
2018,04,25,00,08,14.30
2018,04,25,00,09,14.20
2018,04,25,00,10,14.10
2018,04,25,00,11,13.90
2018,04,25,00,12,13.80
2018,04,25,00,13,13.60
2018,04,25,00,14,13.50
2018,04,25,00,15,13.30
2018,04,25,00,16,13.20
2018,04,25,00,17,13.00
2018,04,25,00,18,12.80
2018,04,25,00,19,12.80
2018,04,25,00,20,12.70
2018,04,25,00,21,12.70
2018,04,25,00,22,12.70
2018,04,25,00,23,12.70
2018,04,25,00,24,12.70
2018,04,25,00,25,12.70
2018,04,25,00,26,12.60
2018,04,25,00,27,12.60
2018,04,25,00,28,12.50
2018,04,25,00,29,12.50
2018,04,25,00,30,12.40
2018,04,25,00,31,12.40
2018,04,25,00,32,12.30
2018,04,25,00,33,12.30
2018,04,25,00,34,12.20
2018,04,25,00,35,12.10
2018,04,25,00,36,12.00
2018,04,25,00,37,11.90
2018,04,25,00,38,11.80
2018,04,25,00,39,11.70
2018,04,25,00,40,11.60
2018,04,25,00,41,11.50
2018,04,25,00,42,11.50
2018,04,25,00,43,11.40
2018,04,25,00,44,11.30
2018,04,25,00,45,11.30
2018,04,25,00,46,11.30
2018,04,25,00,47,11.40
2018,04,25,00,48,11.60
2018,04,25,00,49,11.70
2018,04,25,00,50,11.90
2018,04,25,00,51,12.10
2018,04,25,00,52,12.20
2018,04,25,00,53,12.40
2018,04,25,00,54,12.50
2018,04,25,00,55,12.70
2018,04,25,00,56,12.80
2018,04,25,00,57,13.00
2018,04,25,00,58,13.20
2018,04,25,00,59,13.40
2018,04,25,01,00,13.50
2018,04,25,01,01,13.70
2018,04,25,01,02,13.80
2018,04,25,01,03,13.80
2018,04,25,01,04,13.90
2018,04,25,01,05,13.90
2018,04,25,01,06,13.90
2018,04,25,01,07,14.00
2018,04,25,01,08,14.00
2018,04,25,01,09,14.00
2018,04,25,01,10,14.00
2018,04,25,01,11,14.00
2018,04,25,01,12,14.00
2018,04,25,01,13,14.00
2018,04,25,01,14,14.00
2018,04,25,01,15,13.90
2018,04,25,01,16,13.90
2018,04,25,01,17,13.90
2018,04,25,01,18,13.90
2018,04,25,01,19,13.90
2018,04,25,01,20,13.80
2018,04,25,01,21,13.80
2018,04,25,01,22,13.80
2018,04,25,01,23,13.80
2018,04,25,01,24,13.80
2018,04,25,01,25,13.70
2018,04,25,01,26,13.70
2018,04,25,01,27,13.70
2018,04,25,01,28,13.70
2018,04,25,01,29,13.60
2018,04,25,01,30,13.60
2018,04,25,01,31,13.50
2018,04,25,01,32,13.50
2018,04,25,01,33,13.40
2018,04,25,01,34,13.40
2018,04,25,01,35,13.40
2018,04,25,01,36,13.40
2018,04,25,01,37,13.40
2018,04,25,01,38,13.40
2018,04,25,01,39,13.30
2018,04,25,01,40,13.30
2018,04,25,01,41,13.30
2018,04,25,01,42,13.40
2018,04,25,01,43,13.40
2018,04,25,01,44,13.40
2018,04,25,01,45,13.40
2018,04,25,01,46,13.40
2018,04,25,01,47,13.40
2018,04,25,01,48,13.50
2018,04,25,01,49,13.50
2018,04,25,01,50,13.50
2018,04,25,01,51,13.50
2018,04,25,01,52,13.50
2018,04,25,01,53,13.50
2018,04,25,01,54,13.50
2018,04,25,01,55,13.50
2018,04,25,01,56,13.50
2018,04,25,01,57,13.50
2018,04,25,01,58,13.40
2018,04,25,01,59,13.40
2018,04,25,02,00,13.50
2018,04,25,02,01,13.40
2018,04,25,02,02,13.40
2018,04,25,02,03,13.40
2018,04,25,02,04,13.40
2018,04,25,02,05,13.40
2018,04,25,02,06,13.40
2018,04,25,02,07,13.40
2018,04,25,02,08,13.30
2018,04,25,02,09,13.30
2018,04,25,02,10,13.20
2018,04,25,02,11,13.20
2018,04,25,02,12,13.20
2018,04,25,02,13,13.20
2018,04,25,02,14,13.20
2018,04,25,02,15,13.20
2018,04,25,02,16,13.10
2018,04,25,02,17,13.20
2018,04,25,02,18,13.20
2018,04,25,02,19,13.30
2018,04,25,02,20,13.30
2018,04,25,02,21,13.40
2018,04,25,02,22,13.40
2018,04,25,02,23,13.40
2018,04,25,02,24,13.40
2018,04,25,02,25,13.40
2018,04,25,02,26,13.40
2018,04,25,02,27,13.40
2018,04,25,02,28,13.40
2018,04,25,02,29,13.40
2018,04,25,02,30,13.40
2018,04,25,02,31,13.30
2018,04,25,02,32,13.30
2018,04,25,02,33,13.30
2018,04,25,02,34,13.30
2018,04,25,02,35,13.30
2018,04,25,02,36,13.20
2018,04,25,02,37,13.20
2018,04,25,02,38,13.20
2018,04,25,02,39,13.20
2018,04,25,02,40,13.20
2018,04,25,02,41,13.20
2018,04,25,02,42,13.10
2018,04,25,02,43,13.10
2018,04,25,02,44,13.00
2018,04,25,02,45,12.90
2018,04,25,02,46,12.90
2018,04,25,02,47,12.80
2018,04,25,02,48,12.70
2018,04,25,02,49,12.60
2018,04,25,02,50,12.50
2018,04,25,02,51,12.40
2018,04,25,02,52,12.30
2018,04,25,02,53,12.20
2018,04,25,02,54,12.20
2018,04,25,02,55,12.10
2018,04,25,02,56,12.10
2018,04,25,02,57,12.10
2018,04,25,02,58,12.10
2018,04,25,02,59,12.10
2018,04,25,03,00,12.10
2018,04,25,03,01,12.20
2018,04,25,03,02,12.20
2018,04,25,03,03,12.20
2018,04,25,03,04,12.20
2018,04,25,03,05,12.20
2018,04,25,03,06,12.20
2018,04,25,03,07,12.20
2018,04,25,03,08,12.20
2018,04,25,03,09,12.20
2018,04,25,03,10,12.10
2018,04,25,03,11,12.10
2018,04,25,03,12,12.10
2018,04,25,03,13,12.00
2018,04,25,03,14,12.00
2018,04,25,03,15,12.00
2018,04,25,03,16,11.90
2018,04,25,03,17,11.90
2018,04,25,03,18,11.90
2018,04,25,03,19,11.90
2018,04,25,03,20,11.90
2018,04,25,03,21,11.90
2018,04,25,03,22,11.90
2018,04,25,03,23,11.90
2018,04,25,03,24,11.90
2018,04,25,03,25,11.80
2018,04,25,03,26,11.80
2018,04,25,03,27,11.80
2018,04,25,03,28,11.80
2018,04,25,03,29,11.70
2018,04,25,03,30,11.70
2018,04,25,03,31,11.60
2018,04,25,03,32,11.50
2018,04,25,03,33,11.40
2018,04,25,03,34,11.30
2018,04,25,03,35,11.20
2018,04,25,03,36,11.10
2018,04,25,03,37,11.00
2018,04,25,03,38,11.00
2018,04,25,03,39,10.90
2018,04,25,03,40,10.80
2018,04,25,03,41,10.80
2018,04,25,03,42,10.70
2018,04,25,03,43,10.60
2018,04,25,03,44,10.50
2018,04,25,03,45,10.30
2018,04,25,03,46,10.20
2018,04,25,03,47,10.10
2018,04,25,03,48,9.90
2018,04,25,03,49,9.80
2018,04,25,03,50,9.70
2018,04,25,03,51,9.70
2018,04,25,03,52,9.60
2018,04,25,03,53,9.60
2018,04,25,03,54,9.50
2018,04,25,03,55,9.60
2018,04,25,03,56,9.60
2018,04,25,03,57,9.60
2018,04,25,03,58,9.60
2018,04,25,03,59,9.60
2018,04,25,04,00,9.60
2018,04,25,04,01,9.70
2018,04,25,04,02,9.80
2018,04,25,04,03,9.90
2018,04,25,04,04,10.10
2018,04,25,04,05,10.30
2018,04,25,04,06,10.40
2018,04,25,04,07,10.50
2018,04,25,04,08,10.70
2018,04,25,04,09,10.80
2018,04,25,04,10,10.90
2018,04,25,04,11,11.00
2018,04,25,04,12,11.00
2018,04,25,04,13,11.10
2018,04,25,04,14,11.20
2018,04,25,04,15,11.20
2018,04,25,04,16,11.20
2018,04,25,04,17,11.30
2018,04,25,04,18,11.30
2018,04,25,04,19,11.30
2018,04,25,04,20,11.40
2018,04,25,04,21,11.40
2018,04,25,04,22,11.50
2018,04,25,04,23,11.50
2018,04,25,04,24,11.60
2018,04,25,04,25,11.60
2018,04,25,04,26,11.60
2018,04,25,04,27,11.60
2018,04,25,04,28,11.70
2018,04,25,04,29,11.70
2018,04,25,04,30,11.70
2018,04,25,04,31,11.70
2018,04,25,04,32,11.70
2018,04,25,04,33,11.70
2018,04,25,04,34,11.70
2018,04,25,04,35,11.70
2018,04,25,04,36,11.60
2018,04,25,04,37,11.60
2018,04,25,04,38,11.60
2018,04,25,04,39,11.60
2018,04,25,04,40,11.60
2018,04,25,04,41,11.60
2018,04,25,04,42,11.50
2018,04,25,04,43,11.50
2018,04,25,04,44,11.40
2018,04,25,04,45,11.30
2018,04,25,04,46,11.20
2018,04,25,04,47,11.10
2018,04,25,04,48,11.10
2018,04,25,04,49,11.00
2018,04,25,04,50,10.90
2018,04,25,04,51,10.80
2018,04,25,04,52,10.70
2018,04,25,04,53,10.70
2018,04,25,04,54,10.60
2018,04,25,04,55,10.60
2018,04,25,04,56,10.60
2018,04,25,04,57,10.70
2018,04,25,04,58,10.70
2018,04,25,04,59,10.70
2018,04,25,05,00,10.70
2018,04,25,05,01,10.70
2018,04,25,05,02,10.70
2018,04,25,05,03,10.70
2018,04,25,05,04,10.70
2018,04,25,05,05,10.60
2018,04,25,05,06,10.60
2018,04,25,05,07,10.50
2018,04,25,05,08,10.50
2018,04,25,05,09,10.40
2018,04,25,05,10,10.40
2018,04,25,05,11,10.40
2018,04,25,05,12,10.30
2018,04,25,05,13,10.30
2018,04,25,05,14,10.30
2018,04,25,05,15,10.30
2018,04,25,05,16,10.30
2018,04,25,05,17,10.20
2018,04,25,05,18,10.20
2018,04,25,05,19,10.20
2018,04,25,05,20,10.20
2018,04,25,05,21,10.20
2018,04,25,05,22,10.20
2018,04,25,05,23,10.20
2018,04,25,05,24,10.30
2018,04,25,05,25,10.30
2018,04,25,05,26,10.30
2018,04,25,05,27,10.30
2018,04,25,05,28,10.40
2018,04,25,05,29,10.40
2018,04,25,05,30,10.40
2018,04,25,05,31,10.40
2018,04,25,05,32,10.30
2018,04,25,05,33,10.30
2018,04,25,05,34,10.30
2018,04,25,05,35,10.20
2018,04,25,05,36,10.10
2018,04,25,05,37,10.00
2018,04,25,05,38,9.90
2018,04,25,05,39,9.80
2018,04,25,05,40,9.70
2018,04,25,05,41,9.60
2018,04,25,05,42,9.50
2018,04,25,05,43,9.30
2018,04,25,05,44,9.20
2018,04,25,05,45,9.00
2018,04,25,05,46,8.90
2018,04,25,05,47,8.80
2018,04,25,05,48,8.70
2018,04,25,05,49,8.60
2018,04,25,05,50,8.50
2018,04,25,05,51,8.40
2018,04,25,05,52,8.30
2018,04,25,05,53,8.30
2018,04,25,05,54,8.20
2018,04,25,05,55,8.20
2018,04,25,05,56,8.10
2018,04,25,05,57,8.10
2018,04,25,05,58,8.10
2018,04,25,05,59,8.00
2018,04,25,06,00,8.00
2018,04,25,06,01,7.90
2018,04,25,06,02,7.90
2018,04,25,06,03,7.90
2018,04,25,06,04,7.90
2018,04,25,06,05,7.80
2018,04,25,06,06,7.80
2018,04,25,06,07,7.70
2018,04,25,06,08,7.70
2018,04,25,06,09,7.70
2018,04,25,06,10,7.60
2018,04,25,06,11,7.60
2018,04,25,06,12,7.50
2018,04,25,06,13,7.50
2018,04,25,06,14,7.40
2018,04,25,06,15,7.40
2018,04,25,06,16,7.40
2018,04,25,06,17,7.30
2018,04,25,06,18,7.30
2018,04,25,06,19,7.30
2018,04,25,06,20,7.30
2018,04,25,06,21,7.20
2018,04,25,06,22,7.20
2018,04,25,06,23,7.20
2018,04,25,06,24,7.20
2018,04,25,06,25,7.20
2018,04,25,06,26,7.20
2018,04,25,06,27,7.20
2018,04,25,06,28,7.20
2018,04,25,06,29,7.20
2018,04,25,06,30,7.20
2018,04,25,06,31,7.20
2018,04,25,06,32,7.20
2018,04,25,06,33,7.20
2018,04,25,06,34,7.20
2018,04,25,06,35,7.20
2018,04,25,06,36,7.20
2018,04,25,06,37,7.20
2018,04,25,06,38,7.20
2018,04,25,06,39,7.20
2018,04,25,06,40,7.20
2018,04,25,06,41,7.30
2018,04,25,06,42,7.30
2018,04,25,06,43,7.30
2018,04,25,06,44,7.30
2018,04,25,06,45,7.30
2018,04,25,06,46,7.30
2018,04,25,06,47,7.30
2018,04,25,06,48,7.30
2018,04,25,06,49,7.30
2018,04,25,06,50,7.30
2018,04,25,06,51,7.30
2018,04,25,06,52,7.30
2018,04,25,06,53,7.40
2018,04,25,06,54,7.40
2018,04,25,06,55,7.50
2018,04,25,06,56,7.60
2018,04,25,06,57,7.70
2018,04,25,06,58,7.80
2018,04,25,06,59,7.90
2018,04,25,07,00,8.10
2018,04,25,07,01,8.20
2018,04,25,07,02,8.50
2018,04,25,07,03,8.80
2018,04,25,07,04,9.00
2018,04,25,07,05,9.30
2018,04,25,07,06,9.50
2018,04,25,07,07,9.60
2018,04,25,07,08,9.80
2018,04,25,07,09,9.90
2018,04,25,07,10,10.00
2018,04,25,07,11,10.20
2018,04,25,07,12,10.20
2018,04,25,07,13,10.30
2018,04,25,07,14,10.30
2018,04,25,07,15,10.40
2018,04,25,07,16,10.40
2018,04,25,07,17,10.50
2018,04,25,07,18,10.50
2018,04,25,07,19,10.60
2018,04,25,07,20,10.60
2018,04,25,07,21,10.70
2018,04,25,07,22,10.70
2018,04,25,07,23,10.70
2018,04,25,07,24,10.80
2018,04,25,07,25,10.80
2018,04,25,07,26,10.80
2018,04,25,07,27,10.80
2018,04,25,07,28,10.90
2018,04,25,07,29,10.90
2018,04,25,07,30,10.90
2018,04,25,07,31,11.00
2018,04,25,07,32,11.00
2018,04,25,07,33,11.10
2018,04,25,07,34,11.10
2018,04,25,07,35,11.10
2018,04,25,07,36,11.20
2018,04,25,07,37,11.20
2018,04,25,07,38,11.30
2018,04,25,07,39,11.30
2018,04,25,07,40,11.40
2018,04,25,07,41,11.40
2018,04,25,07,42,11.50
2018,04,25,07,43,11.50
2018,04,25,07,44,11.60
2018,04,25,07,45,11.60
2018,04,25,07,46,11.70
2018,04,25,07,47,11.70
2018,04,25,07,48,11.80
2018,04,25,07,49,11.80
2018,04,25,07,50,11.90
2018,04,25,07,51,11.90
2018,04,25,07,52,12.00
2018,04,25,07,53,12.00
2018,04,25,07,54,12.10
2018,04,25,07,55,12.10
2018,04,25,07,56,12.20
2018,04,25,07,57,12.20
2018,04,25,07,58,12.20
2018,04,25,07,59,12.20
2018,04,25,08,00,12.20
2018,04,25,08,01,12.20
2018,04,25,08,02,12.30
2018,04,25,08,03,12.30
2018,04,25,08,04,12.30
2018,04,25,08,05,12.30
2018,04,25,08,06,12.40
2018,04,25,08,07,12.40
2018,04,25,08,08,12.40
2018,04,25,08,09,12.50
2018,04,25,08,10,12.50
2018,04,25,08,11,12.60
2018,04,25,08,12,12.60
2018,04,25,08,13,12.60
2018,04,25,08,14,12.70
2018,04,25,08,15,12.70
2018,04,25,08,16,12.80
2018,04,25,08,17,12.80
2018,04,25,08,18,12.80
2018,04,25,08,19,12.80
2018,04,25,08,20,12.90
2018,04,25,08,21,12.90
2018,04,25,08,22,13.00
2018,04,25,08,23,13.00
2018,04,25,08,24,13.10
2018,04,25,08,25,13.10
2018,04,25,08,26,13.20
2018,04,25,08,27,13.20
2018,04,25,08,28,13.30
2018,04,25,08,29,13.30
2018,04,25,08,30,13.30
2018,04,25,08,31,13.40
2018,04,25,08,32,13.40
2018,04,25,08,33,13.40
2018,04,25,08,34,13.40
2018,04,25,08,35,13.40
2018,04,25,08,36,13.40
2018,04,25,08,37,13.40
2018,04,25,08,38,13.40
2018,04,25,08,39,13.40
2018,04,25,08,40,13.40
2018,04,25,08,41,13.40
2018,04,25,08,42,13.40
2018,04,25,08,43,13.40
2018,04,25,08,44,13.40
2018,04,25,08,45,13.40
2018,04,25,08,46,13.40
2018,04,25,08,47,13.40
2018,04,25,08,48,13.50
2018,04,25,08,49,13.50
2018,04,25,08,50,13.60
2018,04,25,08,51,13.60
2018,04,25,08,52,13.70
2018,04,25,08,53,13.70
2018,04,25,08,54,13.70
2018,04,25,08,55,13.70
2018,04,25,08,56,13.70
2018,04,25,08,57,13.70
2018,04,25,08,58,13.70
2018,04,25,08,59,13.70
2018,04,25,09,00,13.70
2018,04,25,09,01,13.70
2018,04,25,09,02,13.70
2018,04,25,09,03,13.70
2018,04,25,09,04,13.70
2018,04,25,09,05,13.70
2018,04,25,09,06,13.70
2018,04,25,09,07,13.70
2018,04,25,09,08,13.70
2018,04,25,09,09,13.70
2018,04,25,09,10,13.70
2018,04,25,09,11,13.70
2018,04,25,09,12,13.60
2018,04,25,09,13,13.60
2018,04,25,09,14,13.70
2018,04,25,09,15,13.60
2018,04,25,09,16,13.60
2018,04,25,09,17,13.60
2018,04,25,09,18,13.60
2018,04,25,09,19,13.70
2018,04,25,09,20,13.70
2018,04,25,09,21,13.80
2018,04,25,09,22,13.80
2018,04,25,09,23,13.90
2018,04,25,09,24,14.00
2018,04,25,09,25,14.00
2018,04,25,09,26,14.00
2018,04,25,09,27,14.00
2018,04,25,09,28,14.00
2018,04,25,09,29,14.00
2018,04,25,09,30,14.10
2018,04,25,09,31,14.10
2018,04,25,09,32,14.10
2018,04,25,09,33,14.10
2018,04,25,09,34,14.00
2018,04,25,09,35,14.00
2018,04,25,09,36,13.90
2018,04,25,09,37,13.90
2018,04,25,09,38,13.90
2018,04,25,09,39,13.90
2018,04,25,09,40,13.90
2018,04,25,09,41,13.80
2018,04,25,09,42,13.80
2018,04,25,09,43,13.90
2018,04,25,09,44,13.90
2018,04,25,09,45,14.00
2018,04,25,09,46,14.00
2018,04,25,09,47,14.00
2018,04,25,09,48,14.00
2018,04,25,09,49,14.10
2018,04,25,09,50,14.10
2018,04,25,09,51,14.10
2018,04,25,09,52,14.10
2018,04,25,09,53,14.10
2018,04,25,09,54,14.20
2018,04,25,09,55,14.20
2018,04,25,09,56,14.30
2018,04,25,09,57,14.30
2018,04,25,09,58,14.30
2018,04,25,09,59,14.30
2018,04,25,10,00,14.40
2018,04,25,10,01,14.50
2018,04,25,10,02,14.50
2018,04,25,10,03,14.60
2018,04,25,10,04,14.70
2018,04,25,10,05,14.70
2018,04,25,10,06,14.80
2018,04,25,10,07,14.80
2018,04,25,10,08,14.80
2018,04,25,10,09,14.80
2018,04,25,10,10,14.80
2018,04,25,10,11,14.80
2018,04,25,10,12,14.80
2018,04,25,10,13,14.80
2018,04,25,10,14,14.80
2018,04,25,10,15,14.80
2018,04,25,10,16,14.80
2018,04,25,10,17,14.80
2018,04,25,10,18,14.80
2018,04,25,10,19,14.90
2018,04,25,10,20,14.90
2018,04,25,10,21,15.00
2018,04,25,10,22,15.00
2018,04,25,10,23,15.00
2018,04,25,10,24,15.00
2018,04,25,10,25,15.00
2018,04,25,10,26,15.10
2018,04,25,10,27,15.20
2018,04,25,10,28,15.20
2018,04,25,10,29,15.10
2018,04,25,10,30,15.00
2018,04,25,10,31,15.00
2018,04,25,10,32,15.00
2018,04,25,10,33,15.00
2018,04,25,10,34,15.00
2018,04,25,10,35,15.00
2018,04,25,10,36,15.00
2018,04,25,10,37,15.00
2018,04,25,10,38,15.00
2018,04,25,10,39,15.00
2018,04,25,10,40,15.00
2018,04,25,10,41,15.00
2018,04,25,10,42,15.00
2018,04,25,10,43,15.00
2018,04,25,10,44,15.00
2018,04,25,10,45,15.00
2018,04,25,10,46,15.00
2018,04,25,10,47,15.00
2018,04,25,10,48,15.00
2018,04,25,10,49,15.10
2018,04,25,10,50,15.20
2018,04,25,10,51,15.20
2018,04,25,10,52,15.10
2018,04,25,10,53,15.00
2018,04,25,10,54,15.00
2018,04,25,10,55,15.00
2018,04,25,10,56,15.00
2018,04,25,10,57,15.00
2018,04,25,10,58,15.00
2018,04,25,10,59,15.00
2018,04,25,11,00,15.00
2018,04,25,11,01,14.90
2018,04,25,11,02,14.90
2018,04,25,11,03,14.90
2018,04,25,11,04,14.90
2018,04,25,11,05,14.80
2018,04,25,11,06,14.90
2018,04,25,11,07,14.90
2018,04,25,11,08,14.90
2018,04,25,11,09,14.90
2018,04,25,11,10,14.90
2018,04,25,11,11,15.00
2018,04,25,11,12,15.00
2018,04,25,11,13,15.00
2018,04,25,11,14,15.00
2018,04,25,11,15,15.00
2018,04,25,11,16,15.00
2018,04,25,11,17,15.00
2018,04,25,11,18,15.00
2018,04,25,11,19,15.00
2018,04,25,11,20,15.00
2018,04,25,11,21,15.00
2018,04,25,11,22,15.00
2018,04,25,11,23,15.00
2018,04,25,11,24,15.00
2018,04,25,11,25,14.90
2018,04,25,11,26,14.90
2018,04,25,11,27,14.90
2018,04,25,11,28,15.00
2018,04,25,11,29,15.00
2018,04,25,11,30,15.00
2018,04,25,11,31,15.00
2018,04,25,11,32,15.00
2018,04,25,11,33,15.00
2018,04,25,11,34,15.10
2018,04,25,11,35,15.20
2018,04,25,11,36,15.30
2018,04,25,11,37,15.40
2018,04,25,11,38,15.40
2018,04,25,11,39,15.50
2018,04,25,11,40,15.50
2018,04,25,11,41,15.50
2018,04,25,11,42,15.60
2018,04,25,11,43,15.60
2018,04,25,11,44,15.60
2018,04,25,11,45,15.50
2018,04,25,11,46,15.40
2018,04,25,11,47,15.40
2018,04,25,11,48,15.40
2018,04,25,11,49,15.40
2018,04,25,11,50,15.50
2018,04,25,11,51,15.50
2018,04,25,11,52,15.70
2018,04,25,11,53,15.70
2018,04,25,11,54,15.80
2018,04,25,11,55,15.90
2018,04,25,11,56,16.00
2018,04,25,11,57,16.00
2018,04,25,11,58,16.10
2018,04,25,11,59,16.10
2018,04,25,12,00,16.10
2018,04,25,12,01,16.00
2018,04,25,12,02,16.00
2018,04,25,12,03,16.00
2018,04,25,12,04,16.00
2018,04,25,12,05,16.10
2018,04,25,12,06,16.10
2018,04,25,12,07,16.20
2018,04,25,12,08,16.20
2018,04,25,12,09,16.20
2018,04,25,12,10,16.20
2018,04,25,12,11,16.20
2018,04,25,12,12,16.20
2018,04,25,12,13,16.20
2018,04,25,12,14,16.20
2018,04,25,12,15,16.20
2018,04,25,12,16,16.30
2018,04,25,12,17,16.30
2018,04,25,12,18,16.30
2018,04,25,12,19,16.30
2018,04,25,12,20,16.40
2018,04,25,12,21,16.40
2018,04,25,12,22,16.50
2018,04,25,12,23,16.60
2018,04,25,12,24,16.60
2018,04,25,12,25,16.70
2018,04,25,12,26,16.60
2018,04,25,12,27,16.50
2018,04,25,12,28,16.50
2018,04,25,12,29,16.40
2018,04,25,12,30,16.30
2018,04,25,12,31,16.20
2018,04,25,12,32,16.10
2018,04,25,12,33,16.10
2018,04,25,12,34,16.10
2018,04,25,12,35,16.00
2018,04,25,12,36,15.90
2018,04,25,12,37,15.90
2018,04,25,12,38,15.80
2018,04,25,12,39,15.80
2018,04,25,12,40,15.80
2018,04,25,12,41,15.80
2018,04,25,12,42,15.80
2018,04,25,12,43,15.80
2018,04,25,12,44,15.80
2018,04,25,12,45,15.90
2018,04,25,12,46,16.00
2018,04,25,12,47,16.10
2018,04,25,12,48,16.20
2018,04,25,12,49,16.30
2018,04,25,12,50,16.40
2018,04,25,12,51,16.50
2018,04,25,12,52,16.60
2018,04,25,12,53,16.70
2018,04,25,12,54,16.80
2018,04,25,12,55,16.90
2018,04,25,12,56,16.90
2018,04,25,12,57,17.00
2018,04,25,12,58,17.10
2018,04,25,12,59,17.20
2018,04,25,13,00,17.20
2018,04,25,13,01,17.40
2018,04,25,13,02,17.50
2018,04,25,13,03,17.60
2018,04,25,13,04,17.60
2018,04,25,13,05,17.70
2018,04,25,13,06,17.80
2018,04,25,13,07,17.90
2018,04,25,13,08,18.00
2018,04,25,13,09,18.00
2018,04,25,13,10,18.10
2018,04,25,13,11,18.20
2018,04,25,13,12,18.20
2018,04,25,13,13,18.20
2018,04,25,13,14,18.20
2018,04,25,13,15,18.20
2018,04,25,13,16,18.20
2018,04,25,13,17,18.30
2018,04,25,13,18,18.30
2018,04,25,13,19,18.30
2018,04,25,13,20,18.30
2018,04,25,13,21,18.40
2018,04,25,13,22,18.30
2018,04,25,13,23,18.30
2018,04,25,13,24,18.30
2018,04,25,13,25,18.20
2018,04,25,13,26,18.20
2018,04,25,13,27,18.20
2018,04,25,13,28,18.10
2018,04,25,13,29,18.10
2018,04,25,13,30,18.00
2018,04,25,13,31,17.90
2018,04,25,13,32,17.90
2018,04,25,13,33,17.80
2018,04,25,13,34,17.80
2018,04,25,13,35,17.70
2018,04,25,13,36,17.70
2018,04,25,13,37,17.70
2018,04,25,13,38,17.60
2018,04,25,13,39,17.60
2018,04,25,13,40,17.50
2018,04,25,13,41,17.40
2018,04,25,13,42,17.40
2018,04,25,13,43,17.30
2018,04,25,13,44,17.30
2018,04,25,13,45,17.30
2018,04,25,13,46,17.30
2018,04,25,13,47,17.20
2018,04,25,13,48,17.20
2018,04,25,13,49,17.20
2018,04,25,13,50,17.20
2018,04,25,13,51,17.20
2018,04,25,13,52,17.20
2018,04,25,13,53,17.10
2018,04,25,13,54,17.10
2018,04,25,13,55,17.00
2018,04,25,13,56,16.90
2018,04,25,13,57,16.90
2018,04,25,13,58,16.80
2018,04,25,13,59,16.80
2018,04,25,14,00,16.70
2018,04,25,14,01,16.70
2018,04,25,14,02,16.60
2018,04,25,14,03,16.60
2018,04,25,14,04,16.50
2018,04,25,14,05,16.50
2018,04,25,14,06,16.40
2018,04,25,14,07,16.40
2018,04,25,14,08,16.40
2018,04,25,14,09,16.40
2018,04,25,14,10,16.40
2018,04,25,14,11,16.30
2018,04,25,14,12,16.30
2018,04,25,14,13,16.30
2018,04,25,14,14,16.30
2018,04,25,14,15,16.30
2018,04,25,14,16,16.30
2018,04,25,14,17,16.40
2018,04,25,14,18,16.40
2018,04,25,14,19,16.40
2018,04,25,14,20,16.50
2018,04,25,14,21,16.60
2018,04,25,14,22,16.60
2018,04,25,14,23,16.70
2018,04,25,14,24,16.70
2018,04,25,14,25,16.80
2018,04,25,14,26,16.80
2018,04,25,14,27,16.90
2018,04,25,14,28,16.90
2018,04,25,14,29,17.00
2018,04,25,14,30,17.00
2018,04,25,14,31,17.10
2018,04,25,14,32,17.10
2018,04,25,14,33,17.20
2018,04,25,14,34,17.20
2018,04,25,14,35,17.20
2018,04,25,14,36,17.20
2018,04,25,14,37,17.10
2018,04,25,14,38,17.20
2018,04,25,14,39,17.20
2018,04,25,14,40,17.20
2018,04,25,14,41,17.20
2018,04,25,14,42,17.30
2018,04,25,14,43,17.20
2018,04,25,14,44,17.30
2018,04,25,14,45,17.30
2018,04,25,14,46,17.30
2018,04,25,14,47,17.40
2018,04,25,14,48,17.40
2018,04,25,14,49,17.50
2018,04,25,14,50,17.50
2018,04,25,14,51,17.60
2018,04,25,14,52,17.60
2018,04,25,14,53,17.60
2018,04,25,14,54,17.60
2018,04,25,14,55,17.60
2018,04,25,14,56,17.60
2018,04,25,14,57,17.70
2018,04,25,14,58,17.70
2018,04,25,14,59,17.80
2018,04,25,15,00,17.80
2018,04,25,15,01,17.80
2018,04,25,15,02,17.80
2018,04,25,15,03,17.80
2018,04,25,15,04,17.80
2018,04,25,15,05,17.80
2018,04,25,15,06,17.90
2018,04,25,15,07,18.00
2018,04,25,15,08,18.10
2018,04,25,15,09,18.20
2018,04,25,15,10,18.30
2018,04,25,15,11,18.30
2018,04,25,15,12,18.40
2018,04,25,15,13,18.40
2018,04,25,15,14,18.40
2018,04,25,15,15,18.50
2018,04,25,15,16,18.50
2018,04,25,15,17,18.50
2018,04,25,15,18,18.60
2018,04,25,15,19,18.60
2018,04,25,15,20,18.70
2018,04,25,15,21,18.70
2018,04,25,15,22,18.80
2018,04,25,15,23,18.80
2018,04,25,15,24,18.90
2018,04,25,15,25,18.90
2018,04,25,15,26,18.90
2018,04,25,15,27,19.00
2018,04,25,15,28,19.10
2018,04,25,15,29,19.10
2018,04,25,15,30,19.20
2018,04,25,15,31,19.30
2018,04,25,15,32,19.40
2018,04,25,15,33,19.50
2018,04,25,15,34,19.60
2018,04,25,15,35,19.60
2018,04,25,15,36,19.70
2018,04,25,15,37,19.70
2018,04,25,15,38,19.70
2018,04,25,15,39,19.80
2018,04,25,15,40,19.80
2018,04,25,15,41,19.80
2018,04,25,15,42,19.80
2018,04,25,15,43,19.80
2018,04,25,15,44,19.80
2018,04,25,15,45,19.80
2018,04,25,15,46,19.90
2018,04,25,15,47,19.90
2018,04,25,15,48,19.90
2018,04,25,15,49,20.00
2018,04,25,15,50,20.00
2018,04,25,15,51,20.10
2018,04,25,15,52,20.10
2018,04,25,15,53,20.10
2018,04,25,15,54,20.20
2018,04,25,15,55,20.30
2018,04,25,15,56,20.30
2018,04,25,15,57,20.40
2018,04,25,15,58,20.40
2018,04,25,15,59,20.40
2018,04,25,16,00,20.30
2018,04,25,16,01,20.30
2018,04,25,16,02,20.30
2018,04,25,16,03,20.30
2018,04,25,16,04,20.30
2018,04,25,16,05,20.20
2018,04,25,16,06,20.20
2018,04,25,16,07,20.20
2018,04,25,16,08,20.20
2018,04,25,16,09,20.20
2018,04,25,16,10,20.20
2018,04,25,16,11,20.20
2018,04,25,16,12,20.20
2018,04,25,16,13,20.20
2018,04,25,16,14,20.10
2018,04,25,16,15,20.10
2018,04,25,16,16,20.10
2018,04,25,16,17,20.10
2018,04,25,16,18,20.10
2018,04,25,16,19,20.10
2018,04,25,16,20,20.10
2018,04,25,16,21,20.10
2018,04,25,16,22,20.20
2018,04,25,16,23,20.20
2018,04,25,16,24,20.20
2018,04,25,16,25,20.20
2018,04,25,16,26,20.20
2018,04,25,16,27,20.20
2018,04,25,16,28,20.20
2018,04,25,16,29,20.20
2018,04,25,16,30,20.10
2018,04,25,16,31,20.10
2018,04,25,16,32,20.20
2018,04,25,16,33,20.20
2018,04,25,16,34,20.20
2018,04,25,16,35,20.20
2018,04,25,16,36,20.20
2018,04,25,16,37,20.30
2018,04,25,16,38,20.30
2018,04,25,16,39,20.40
2018,04,25,16,40,20.40
2018,04,25,16,41,20.50
2018,04,25,16,42,20.60
2018,04,25,16,43,20.60
2018,04,25,16,44,20.70
2018,04,25,16,45,20.70
2018,04,25,16,46,20.70
2018,04,25,16,47,20.80
2018,04,25,16,48,20.80
2018,04,25,16,49,20.90
2018,04,25,16,50,20.90
2018,04,25,16,51,21.00
2018,04,25,16,52,21.00
2018,04,25,16,53,21.10
2018,04,25,16,54,21.20
2018,04,25,16,55,21.20
2018,04,25,16,56,21.30
2018,04,25,16,57,21.30
2018,04,25,16,58,21.40
2018,04,25,16,59,21.40
2018,04,25,17,00,21.40
2018,04,25,17,01,21.50
2018,04,25,17,02,21.50
2018,04,25,17,03,21.60
2018,04,25,17,04,21.60
2018,04,25,17,05,21.60
2018,04,25,17,06,21.70
2018,04,25,17,07,21.70
2018,04,25,17,08,21.70
2018,04,25,17,09,21.70
2018,04,25,17,10,21.70
2018,04,25,17,11,21.70
2018,04,25,17,12,21.70
2018,04,25,17,13,21.70
2018,04,25,17,14,21.70
2018,04,25,17,15,21.70
2018,04,25,17,16,21.70
2018,04,25,17,17,21.70
2018,04,25,17,18,21.70
2018,04,25,17,19,21.70
2018,04,25,17,20,21.70
2018,04,25,17,21,21.60
2018,04,25,17,22,21.60
2018,04,25,17,23,21.50
2018,04,25,17,24,21.50